Simultaneous Nadir Overpasses (SNOs) Predictions

Prediction of SNOs between METOP-C and LANDSAT-8 Satellite Orbit:

Table of predicted SNOs for the next 14.0 days since TLE Epoch: 7/3/2021
Index Date (METOP-C) Time (METOP-C) Lat,Lon (METOP-C) SZA (METOP-C ) Date (LANDSAT-8) Time (LANDSAT-8) Lat,Lon (LANDSAT-8) SZA (LANDSAT-8 ) Distance(km) Time Diff (sec)
1 07/05/2021 20:48:00 81.15, -91.63 60.54 07/05/2021 20:48:33 81.15, -91.73 60.54 1.89 33
2 07/05/2021 21:38:39 -81.19, 76.71 119.33 07/05/2021 21:37:58 -81.19, 76.56 119.36 2.57 41
3 07/08/2021 16:22:20 81.16, -25.16 60.84 07/08/2021 16:22:47 81.16, -25.14 60.86 0.33 27
4 07/08/2021 17:13:00 -81.18, 142.80 119.08 07/08/2021 17:12:13 -81.18, 142.82 119.10 0.33 47
5 07/11/2021 11:56:41 81.16, 41.31 61.20 07/11/2021 11:57:02 81.16, 41.43 61.22 2.09 21
6 07/11/2021 12:47:21 -81.18,-150.75 118.73 07/11/2021 12:46:28 -81.18,-150.59 118.73 2.82 53
7 07/14/2021 07:31:01 81.17, 108.14 61.65 07/14/2021 07:31:17 81.17, 107.96 61.63 3.13 16



Historial Predications of SNOs between METOP-C and LANDSAT-8
